STARLINK-1335 (45581 NORAD) Tracking and Keplerian Element Data

This shows tracking and keplerian element data for the satellite.

Feedback or suggestion? Click here.




ElementValue
Catalog45581
NameSTARLINK-1335
Epoch Orbit177
Epoch Day196.91667824
Epoch Year2020
RAAN351.1682
Inclination52.9972
Eccentricity0.0001851
Argument of Perigee37.2519
Mean Anonmoly17.9453
Mean Motion15.62822192
Decay Rate-0.00048444
L11 45581U 20025BC 20196.91667824 -.00048444 00000-0 -52490-3 0 9992
L22 45581 52.9972 351.1682 0001851 37.2519 17.9453 15.62822192 1779

Live tracking and technical data element details for STARLINK-1335 (NORAD 45581). STARLINK-1335 can be tracked NOW for your location showing map with azimuth and elevation plus other details from your city location.

Track the satellite on the map from your city or location and see movement details for azimuth, elevation, latitude, longitude, range, height, and movement on the map or in text.







IsCatalogInMostPopularTable: catalog: 45581, numindb: 34
Update: records affected: 1



GetName: 45581 STARLINK-1335

Hit Count: updated at: Thu, 16 Jul 2020 03:10:59 GMT